Content
SEND FEEDBACK

Daily
Averages
Monthly
Summary
United States of America

DEDEDO, GUAM


Home > North America > United States > Guam
Elevation: 364 feet     Latitude: 13 33N     Longitude: 144 49E

WEATHER
 
SELECT A DAY
Number of Records: 213,899;   Date Range: 1/1/95 - 10/23/14
 
SHARE

PRINT THIS DATA

[ ← Previous Day ]
WEATHER ALMANAC - JUNE 19, 2013
[ Next Day → ]
[ °C ]   °F
Weather ElementAverageHighLow
Temperature86.2 °F91 °F (12:54 pm)82 °F (5:54 pm)
Dewpoint75.6 °F78.8 °F (4:38 pm)73.9 °F (4:54 am)
Humidity70.7 %84 % (4:38 pm)59 % (12:54 pm)
Barometer29.86 in29.91 in (9:49 am)29.81 in (1:54 pm)
Wind Speed11.7 mph18.4 mph (4:38 pm)
Wind Gust26.5 mph (12:54 pm)
Weather ElementAverage
Visibility9.5 mi
Wind DirectionE (87.1 °)

Weather ElementTotal
Precipitation0.22 in
Cooling Degree Days21.5 (Base 65)
Growing Degree Days36.5 (Base 50)
Averaged from 31 records on June 19, 2013
WEATHER CONDITIONS BREAKOUT
WIND DIRECTION BREAKOUT
WEATHER BY HOUR - JUNE 19, 2013
[ °C ]   °F
Local TimeTemperatureDewpointHumidityBarometerVisibilityWind DirectionWind SpeedGust SpeedPrecipitationEventsConditions
1:54 AM84.0 °F75.9 °F76 %29.85 in10.0 miEast (80°)8.1 mphPartly Cloudy
2:54 AM84.0 °F75.0 °F74 %29.84 in10.0 miEast (90°)9.2 mphPartly Cloudy
3:54 AM84.0 °F75.0 °F74 %29.85 in10.0 miEast (90°)11.5 mphPartly Cloudy
4:54 AM84.0 °F73.9 °F72 %29.85 in10.0 miEast (80°)8.1 mphPartly Cloudy
5:54 AM82.9 °F75.0 °F77 %29.86 in10.0 miEast (80°)8.1 mphClear
6:54 AM84.0 °F75.0 °F74 %29.87 in10.0 miEast (80°)5.8 mphPartly Cloudy
7:54 AM86.0 °F75.0 °F70 %29.88 in10.0 miEast (90°)13.8 mphPartly Cloudy
8:54 AM88.0 °F75.0 °F65 %29.88 in10.0 miEast (100°)13.8 mphScattered Clouds
9:49 AM87.8 °F75.2 °F66 %29.91 in10.0 miEast (100°)10.4 mphMostly Cloudy
9:54 AM88.0 °F75.0 °F65 %29.88 in10.0 miEast (100°)12.7 mphMostly Cloudy
10:37 AM89.6 °F75.2 °F62 %29.90 in10.0 miEast (100°)10.4 mph23.0 mphMostly Cloudy
10:47 AM87.8 °F75.2 °F66 %29.90 in10.0 miEast (90°)12.7 mphMostly Cloudy
10:54 AM88.0 °F75.9 °F67 %29.87 in10.0 miEast (100°)12.7 mphMostly Cloudy
11:19 AM89.6 °F75.2 °F62 %29.89 in10.0 miEast (90°)16.1 mph21.9 mphScattered Clouds
11:54 AM90.0 °F75.0 °F61 %29.85 in10.0 miEast (100°)16.1 mph24.2 mphScattered Clouds
12:54 PM91.0 °F75.0 °F59 %29.83 in10.0 miEast (80°)16.1 mph26.5 mphPartly Cloudy
1:54 PM90.0 °F75.0 °F61 %29.81 in10.0 miEast (80°)16.1 mph24.2 mphMostly Cloudy
2:15 PM89.6 °F75.2 °F62 %29.84 in10.0 miEast (80°)15.0 mphMostly Cloudy
2:54 PM89.1 °F75.0 °F63 %29.81 in10.0 miENE (70°)15.0 mph24.2 mphMostly Cloudy
3:07 PM89.6 °F75.2 °F62 %29.83 in10.0 miEast (90°)15.0 mphMostly Cloudy
3:54 PM90.0 °F75.0 °F61 %29.81 in10.0 miEast (80°)17.3 mph24.2 mphPartly Cloudy
4:38 PM84.2 °F78.8 °F84 %29.85 in1.5 miEast (90°)18.4 mph26.5 mph0.02 inRainHeavy Rain
4:44 PM82.4 °F77.0 °F84 %29.84 in6.0 miEast (90°)8.1 mph26.5 mph0.09 inRainLight Rain
4:54 PM84.0 °F77.0 °F79 %29.82 in10.0 miEast (80°)9.2 mph0.10 inScattered Clouds
5:54 PM82.0 °F73.9 °F76 %29.84 in7.0 miEast (90°)8.1 mph18.4 mph0.01 inMostly Cloudy
6:54 PM84.0 °F75.9 °F76 %29.86 in10.0 miEast (80°)10.4 mphPartly Cloudy
7:54 PM84.0 °F77.0 °F79 %29.88 in10.0 miEast (80°)9.2 mphPartly Cloudy
8:54 PM84.0 °F77.0 °F79 %29.89 in10.0 miEast (80°)9.2 mphPartly Cloudy
9:54 PM84.0 °F75.9 °F76 %29.90 in10.0 miEast (90°)9.2 mphPartly Cloudy
10:54 PM82.9 °F75.9 °F79 %29.91 in10.0 miEast (80°)8.1 mphPartly Cloudy
11:54 PM82.9 °F77.0 °F82 %29.89 in10.0 miEast (90°)8.1 mphMostly Cloudy
Hourly data recorded from PGUM, located miles away from Dededo, Guam







STORIES FROM OUR PARTNERS